This demonstration page uses our WeatherBlox Daily Observations layout. Learn more.

Left ArrowRight Arrow

39.51506, -84.39828

Hourly Observations for February 5, 2016

Temp ( °F °C ) Dew Point ( °F °C ) Humidity (%) Winds ( mph kmh ) Pressure ( in mb ) Visibility ( mi km ) Precip ( " mm )
12:15 am 00:15 Clear 24 -4.2 20 -6.7 83 83 Calm 30.39 1029 10 16 0.00 0.00
12:35 am 00:35 Clear 24 -4.7 19 -7 84 84 Calm 30.42 1030 10 16 0.00 0.00
12:55 am 00:55 Clear 23 -5 19 -7.1 85 85 Calm 30.42 1030 10 16 0.00 0.00
1:15 am 01:15 Clear 23 -5.1 19 -7.4 84 84 Calm 30.42 1030 10 16 0.00 0.00
1:35 am 01:35 Clear 23 -5.2 19 -7.5 84 84 Calm 30.42 1030 10 16 0.00 0.00
1:55 am 01:55 Clear 22 -5.3 19 -7.5 85 85 Calm 30.42 1030 10 16 0.00 0.00
2:15 am 02:15 Clear 22 -5.6 18 -7.7 85 85 Calm 30.45 1031 10 16 0.00 0.00
2:35 am 02:35 Clear 22 -5.6 18 -7.6 86 86 Calm 30.45 1031 10 16 0.00 0.00
2:55 am 02:55 Clear 22 -5.5 19 -7.5 86 86 Calm 30.45 1031 10 16 0.00 0.00
3:15 am 03:15 Clear 22 -5.5 19 -7.5 86 86 Calm 30.45 1031 10 16 0.00 0.00
3:35 am 03:35 Clear 23 -5.2 19 -7.3 85 85 SW 3 6 30.45 1031 10 16 0.00 0.00
3:55 am 03:55 Clear 22 -5.6 18 -7.9 84 84 Calm 30.45 1031 10 16 0.00 0.00
4:15 am 04:15 Clear 21 -6.3 17 -8.5 85 85 Calm 30.45 1031 10 16 0.00 0.00
4:35 am 04:35 Clear 22 -5.6 19 -7.5 87 87 Calm 30.45 1031 7 11 0.00 0.00
4:55 am 04:55 Clear 21 -6.2 17 -8.1 87 87 Calm 30.45 1031 7 11 0.00 0.00
5:15 am 05:15 Clear 22 -5.6 19 -7.5 87 87 Calm 30.45 1031 7 11 0.00 0.00
5:35 am 05:35 Clear 22 -5.6 19 -7.5 87 87 Calm 30.45 1031 7 11 0.00 0.00
5:55 am 05:55 Clear 21 -6.3 17 -8.1 87 87 Calm 30.45 1031 10 16 0.00 0.00
6:15 am 06:15 Clear 21 -6.3 17 -8.2 87 87 Calm 30.45 1031 10 16 0.00 0.00
6:35 am 06:35 Clear 21 -6.3 17 -8.1 87 87 Calm 30.48 1032 10 16 0.00 0.00
6:55 am 06:55 Clear 21 -6.3 17 -8.1 87 87 Calm 30.48 1032 7 11 0.00 0.00
7:15 am 07:15 Clear 21 -6.3 17 -8.2 87 87 Calm 30.48 1032 7 11 0.00 0.00
7:35 am 07:35 Clear 20 -6.7 17 -8.6 87 87 Calm 30.48 1032 10 16 0.00 0.00
7:55 am 07:55 Sunny 20 -6.6 17 -8.6 86 86 Calm 30.48 1032 10 16 0.00 0.00
8:15 am 08:15 Sunny 21 -6.3 17 -8.3 86 86 Calm 30.48 1032 7 11 0.00 0.00
8:35 am 08:35 Sunny 22 -5.5 19 -7.4 87 87 Calm 30.50 1033 7 11 0.00 0.00
8:55 am 08:55 Sunny 26 -3.1 23 -5.1 86 86 Calm 30.48 1032 10 16 0.00 0.00
9:15 am 09:15 Sunny 29 -1.9 25 -4.1 85 85 SSW 3 6 30.48 1032 10 16 0.00 0.00
9:35 am 09:35 Sunny 29 -1.5 24 -4.4 81 81 SW 6 9 30.48 1032 10 16 0.00 0.00
9:55 am 09:55 Sunny 29 -1.5 22 -5.4 75 75 S 5 7 30.48 1032 10 16 0.00 0.00
10:15 am 10:15 Sunny 32 0 23 -5.1 69 69 SSW 7 11 30.48 1032 10 16 0.00 0.00
10:35 am 10:35 Sunny 34 1.2 24 -4.6 66 66 SSW 7 11 30.48 1032 10 16 0.00 0.00
10:55 am 10:55 Sunny 34 1.2 22 -5.6 61 61 SSW 6 9 30.48 1032 10 16 0.00 0.00
11:15 am 11:15 Sunny 35 1.7 20 -6.6 54 54 SSW 6 9 30.48 1032 10 16 0.00 0.00
11:35 am 11:35 Sunny 37 2.6 19 -7.1 49 49 S 7 11 30.48 1032 10 16 0.00 0.00
11:55 am 11:55 Sunny 37 2.8 19 -7.4 47 47 S 5 7 30.45 1031 10 16 0.00 0.00
12:15 pm 12:15 Sunny 39 4 18 -7.8 42 42 SSW 7 11 30.45 1031 10 16 0.00 0.00
12:35 pm 12:35 Sunny 39 4 15 -9.6 37 37 SW 6 9 30.45 1031 10 16 0.00 0.00
12:55 pm 12:55 Sunny 39 4.1 15 -9.7 36 36 S 5 7 30.42 1030 10 16 0.00 0.00
1:15 pm 13:15 Sunny 41 4.9 14 -9.9 34 34 SW 10 17 30.42 1030 10 16 0.00 0.00
1:35 pm 13:35 Sunny 42 5.5 15 -9.3 34 34 WSW 10 17 30.42 1030 10 16 0.00 0.00
1:55 pm 13:55 Sunny 42 5.7 14 -9.9 32 32 SSW 12 19 30.39 1029 10 16 0.00 0.00
2:15 pm 14:15 Sunny 43 5.9 14 -10 31 31 S 8 13 30.39 1029 10 16 0.00 0.00
2:35 pm 14:35 Sunny 43 6.1 13 -10.8 29 29 SW 10 17 30.39 1029 10 16 0.00 0.00
2:55 pm 14:55 Sunny 44 6.4 12 -10.9 28 28 SSW 12 19 30.39 1029 10 16 0.00 0.00
3:15 pm 15:15 Sunny 44 6.6 12 -10.9 28 28 SSW 12 19 30.36 1028 10 16 0.00 0.00
3:35 pm 15:35 Sunny 44 6.8 13 -10.7 28 28 SSW 12 19 30.36 1028 10 16 0.00 0.00
3:55 pm 15:55 Sunny 44 6.6 12 -11 27 27 SSW 9 15 30.36 1028 10 16 0.00 0.00
4:15 pm 16:15 Sunny 43 6.1 13 -10.7 29 29 SW 10 17 30.39 1029 10 16 0.00 0.00
4:35 pm 16:35 Sunny 43 6 14 -9.8 31 31 SW 9 15 30.39 1029 10 16 0.00 0.00
4:55 pm 16:55 Sunny 43 5.9 15 -9.4 33 33 SSW 14 22 30.39 1029 10 16 0.00 0.00
5:15 pm 17:15 Partly Cloudy 42 5.8 14 -9.9 32 32 SSW 8 13 30.39 1029 10 16 0.00 0.00
5:35 pm 17:35 Mostly Cloudy 42 5.8 14 -9.9 32 32 SSW 7 11 30.39 1029 10 16 0.00 0.00
5:55 pm 17:55 Partly Cloudy 42 5.5 14 -9.8 33 33 SSW 10 17 30.39 1029 10 16 0.00 0.00
6:15 pm 18:15 Partly Cloudy 40 4.3 16 -9.1 37 37 SSW 8 13 30.39 1029 10 16 0.00 0.00
6:35 pm 18:35 Mostly Cloudy 40 4.6 16 -8.7 38 38 SSW 7 11 30.39 1029 10 16 0.00 0.00
6:55 pm 18:55 Cloudy 39 4 17 -8.3 41 41 SSW 8 13 30.39 1029 10 16 0.00 0.00
7:15 pm 19:15 Cloudy 39 4 17 -8.2 41 41 SSW 6 9 30.39 1029 10 16 0.00 0.00
7:35 pm 19:35 Cloudy 39 4 17 -8.5 40 40 SSW 7 11 30.39 1029 10 16 0.00 0.00
7:55 pm 19:55 Cloudy 39 4 16 -8.7 39 39 SSW 7 11 30.39 1029 10 16 0.00 0.00
8:15 pm 20:15 Cloudy 39 4 17 -8.5 40 40 SSW 8 13 30.39 1029 10 16 0.00 0.00
8:35 pm 20:35 Cloudy 39 4 18 -7.7 43 43 SSW 7 11 30.36 1028 10 16 0.00 0.00
8:55 pm 20:55 Cloudy 39 4 21 -6.3 47 47 SW 6 9 30.39 1029 10 16 0.00 0.00
9:15 pm 21:15 Cloudy 39 4 20 -6.5 47 47 WNW 7 11 30.39 1029 10 16 0.00 0.00
9:35 pm 21:35 Mostly Cloudy 37 2.6 21 -6.2 53 53 NNW 8 13 30.39 1029 10 16 0.00 0.00
9:55 pm 21:55 Partly Cloudy 34 1.2 25 -3.7 70 70 N 6 9 30.39 1029 10 16 0.00 0.00
10:15 pm 22:15 Clear 34 1.2 26 -3.1 73 73 N 3 6 30.39 1029 10 16 0.00 0.00
10:35 pm 22:35 Clear 34 1.2 27 -2.7 76 76 NE 3 6 30.39 1029 10 16 0.00 0.00
10:55 pm 22:55 Clear 34 1.2 27 -2.6 76 76 NE 5 7 30.39 1029 10 16 0.00 0.00
11:15 pm 23:15 Clear 33 0.8 26 -3.3 74 74 NE 3 6 30.39 1029 10 16 0.00 0.00
11:35 pm 23:35 Clear 34 1.2 27 -2.6 76 76 Calm 30.39 1029 10 16 0.00 0.00
11:55 pm 23:55 Clear 30 -1.1 25 -4.1 80 80 Calm 30.39 1029 10 16 0.00 0.00

Powered by AerisWeather